BAW433 EHAM-EGLL

Flight info

Callsign BAW433
Flight time 0h 45m
Altitude 24000
Route VALK5M IDRID L980 LOGAN LOGA2H
Aircraft A320/M-SDE3FGHIRWY/LB1

Departure

Time 2026-05-05 13:50
Airport Amsterdam Airport Schiphol (EHAM)

Arrival

Time 2026-05-05 14:36
Airport London Heathrow Airport (EGLL)
Time Latitude Longitude Altitude Speed Heading
2026-05-05 12:56 52.30715 4.77026 6 ft 0 kts
2026-05-05 13:37 52.30709 4.77026 6 ft 2 kts
2026-05-05 13:37 52.30697 4.77025 6 ft 0 kts
2026-05-05 13:37 52.30684 4.77025 5 ft 2 kts 346°
2026-05-05 13:37 52.30671 4.77034 5 ft 2 kts 327°
2026-05-05 13:38 52.30659 4.77049 5 ft 2 kts 307°
2026-05-05 13:38 52.30652 4.77071 5 ft 2 kts 288°
2026-05-05 13:38 52.30650 4.77086 5 ft 0 kts 275°
2026-05-05 13:38 52.30650 4.77097 5 ft 0 kts 273°
2026-05-05 13:40 52.30650 4.77073 5 ft 4 kts 272°
2026-05-05 13:41 52.30624 4.77028 5 ft 7 kts 183°
2026-05-05 13:41 52.30567 4.77070 4 ft 10 kts 147°
2026-05-05 13:41 52.30499 4.77057 3 ft 12 kts 235°
2026-05-05 13:41 52.30450 4.76927 2 ft 14 kts 239°
2026-05-05 13:42 52.30393 4.76776 1 ft 16 kts 238°
2026-05-05 13:42 52.30325 4.76600 0 ft 20 kts 237°
2026-05-05 13:42 52.30248 4.76398 0 ft 21 kts 238°
2026-05-05 13:42 52.30168 4.76190 0 ft 21 kts 237°
2026-05-05 13:43 52.30087 4.75978 0 ft 21 kts 237°
2026-05-05 13:43 52.30006 4.75767 0 ft 22 kts 237°
2026-05-05 13:43 52.29924 4.75554 0 ft 22 kts 238°
2026-05-05 13:43 52.29846 4.75347 0 ft 17 kts 239°
2026-05-05 13:44 52.29858 4.75162 0 ft 17 kts 312°
2026-05-05 13:44 52.29942 4.75009 0 ft 18 kts 311°
2026-05-05 13:44 52.30026 4.74851 -1 ft 19 kts 311°
2026-05-05 13:44 52.30118 4.74681 -3 ft 20 kts 311°
2026-05-05 13:45 52.30216 4.74499 -7 ft 22 kts 311°
2026-05-05 13:45 52.30279 4.74380 -5 ft 5 kts 311°
2026-05-05 13:45 52.30302 4.74335 -9 ft 6 kts 313°
2026-05-05 13:45 52.30339 4.74270 -10 ft 8 kts 311°
2026-05-05 13:46 52.30386 4.74186 -10 ft 10 kts 312°
2026-05-05 13:46 52.30430 4.74080 -11 ft 12 kts 284°
2026-05-05 13:46 52.30411 4.74005 -11 ft 7 kts 235°
2026-05-05 13:46 52.30407 4.73920 -10 ft 5 kts 273°
2026-05-05 13:47 52.30407 4.73911 -10 ft 1 kts 273°
2026-05-05 13:47 52.30409 4.73883 -10 ft 3 kts 273°
2026-05-05 13:47 52.30410 4.73834 -10 ft 5 kts 274°
2026-05-05 13:47 52.30412 4.73777 -10 ft 4 kts 274°
2026-05-05 13:48 52.30432 4.73754 -10 ft 2 kts
2026-05-05 13:49 52.30522 4.73764 -10 ft 42 kts
2026-05-05 13:49 52.31046 4.73807 -7 ft 107 kts
2026-05-05 13:50 52.31990 4.73904 -5 ft 161 kts
2026-05-05 13:50 52.33147 4.73987 524 ft 166 kts
2026-05-05 13:50 52.34269 4.74077 1247 ft 164 kts
2026-05-05 13:50 52.35388 4.74058 1989 ft 165 kts 356°
2026-05-05 13:51 52.36474 4.73564 2667 ft 163 kts 342°
2026-05-05 13:51 52.37540 4.72856 3079 ft 173 kts 343°
2026-05-05 13:51 52.38700 4.72146 3500 ft 184 kts 343°
2026-05-05 13:51 52.39943 4.71392 3941 ft 196 kts 343°
2026-05-05 13:52 52.41242 4.70605 4456 ft 204 kts 342°
2026-05-05 13:52 52.42572 4.69621 4844 ft 225 kts 324°
2026-05-05 13:52 52.43548 4.67475 5300 ft 248 kts 291°
2026-05-05 13:52 52.43699 4.64641 5798 ft 266 kts 261°
2026-05-05 13:53 52.42920 4.61780 6303 ft 284 kts 233°
2026-05-05 13:53 52.41629 4.59380 7218 ft 284 kts 229°
2026-05-05 13:53 52.40342 4.56994 8047 ft 285 kts 232°
2026-05-05 13:53 52.39205 4.54333 8840 ft 288 kts 239°
2026-05-05 13:54 52.38176 4.51516 9625 ft 292 kts 241°
2026-05-05 13:54 52.37156 4.48665 10321 ft 296 kts 241°
2026-05-05 13:54 52.36076 4.45679 10777 ft 312 kts 240°
2026-05-05 13:54 52.34943 4.42584 11122 ft 328 kts 240°
2026-05-05 13:55 52.33746 4.39348 11697 ft 335 kts 240°
2026-05-05 13:55 52.32531 4.36085 12383 ft 338 kts 239°
2026-05-05 13:55 52.31304 4.32801 13030 ft 342 kts 239°
2026-05-05 13:55 52.30057 4.29474 13665 ft 345 kts 239°
2026-05-05 13:56 52.28813 4.26162 14311 ft 348 kts 239°
2026-05-05 13:56 52.27549 4.22794 14946 ft 350 kts 238°
2026-05-05 13:56 52.26277 4.19413 15578 ft 353 kts 238°
2026-05-05 13:56 52.24992 4.16005 16169 ft 355 kts 238°
2026-05-05 13:57 52.23705 4.12594 16790 ft 356 kts 238°
2026-05-05 13:57 52.22398 4.09140 17382 ft 358 kts 237°
2026-05-05 13:57 52.21095 4.05701 17950 ft 360 kts 237°
2026-05-05 13:57 52.19789 4.02259 18529 ft 362 kts 237°
2026-05-05 13:58 52.18465 3.98775 19045 ft 365 kts 237°
2026-05-05 13:58 52.17121 3.95246 19509 ft 369 kts 237°
2026-05-05 13:58 52.15763 3.91678 20011 ft 372 kts 237°
2026-05-05 13:58 52.14400 3.88107 20511 ft 375 kts 237°
2026-05-05 13:59 52.11643 3.80893 21499 ft 379 kts 237°
2026-05-05 13:59 52.10245 3.77242 21983 ft 381 kts 237°
2026-05-05 14:00 52.07449 3.69956 22874 ft 386 kts 237°
2026-05-05 14:00 52.06498 3.67484 23170 ft 387 kts 237°
2026-05-05 14:00 52.04581 3.62505 23745 ft 391 kts 238°
2026-05-05 14:00 52.03148 3.58789 23918 ft 392 kts 238°
2026-05-05 14:01 52.01701 3.55045 23924 ft 391 kts 237°
2026-05-05 14:01 52.00269 3.51345 23930 ft 391 kts 237°
2026-05-05 14:01 51.98731 3.47684 23931 ft 391 kts 233°
2026-05-05 14:01 51.97144 3.44154 23933 ft 391 kts 233°
2026-05-05 14:02 51.95533 3.40585 23937 ft 391 kts 233°
2026-05-05 14:02 51.93935 3.37054 23934 ft 391 kts 233°
2026-05-05 14:02 51.92327 3.33504 23934 ft 390 kts 232°
2026-05-05 14:02 51.90704 3.29930 23934 ft 390 kts 232°
2026-05-05 14:03 51.89086 3.26369 23932 ft 390 kts 233°
2026-05-05 14:03 51.87446 3.22761 23930 ft 390 kts 233°
2026-05-05 14:03 51.85994 3.19159 23928 ft 391 kts 242°
2026-05-05 14:03 51.84983 3.15148 23927 ft 392 kts 253°
2026-05-05 14:04 51.84454 3.10831 23936 ft 393 kts 262°
2026-05-05 14:04 51.84158 3.06394 23936 ft 394 kts 263°
2026-05-05 14:04 51.83892 3.01970 23937 ft 394 kts 263°
2026-05-05 14:04 51.83672 2.98351 23945 ft 395 kts 263°
2026-05-05 14:05 51.83397 2.93948 23948 ft 395 kts 263°
2026-05-05 14:05 51.83115 2.89570 23947 ft 395 kts 263°
2026-05-05 14:05 51.82824 2.85119 23947 ft 395 kts 263°
2026-05-05 14:05 51.82533 2.80744 23946 ft 395 kts 263°
2026-05-05 14:06 51.82238 2.76362 23949 ft 395 kts 263°
2026-05-05 14:06 51.81938 2.71941 23946 ft 394 kts 263°
2026-05-05 14:06 51.81640 2.67552 23943 ft 394 kts 263°
2026-05-05 14:06 51.81340 2.63156 23947 ft 394 kts 263°
2026-05-05 14:07 51.81039 2.58786 23944 ft 393 kts 263°
2026-05-05 14:07 51.80738 2.54442 23947 ft 394 kts 263°
2026-05-05 14:07 51.80430 2.50031 23943 ft 394 kts 263°
2026-05-05 14:07 51.80125 2.45670 23941 ft 394 kts 263°
2026-05-05 14:08 51.79819 2.41323 23942 ft 394 kts 263°
2026-05-05 14:08 51.79507 2.36915 23943 ft 394 kts 263°
2026-05-05 14:08 51.79192 2.32516 23944 ft 394 kts 262°
2026-05-05 14:08 51.78871 2.28046 23943 ft 394 kts 262°
2026-05-05 14:09 51.78554 2.23648 23951 ft 394 kts 262°
2026-05-05 14:09 51.78256 2.19159 23954 ft 394 kts 263°
2026-05-05 14:09 51.78004 2.14836 23955 ft 395 kts 263°
2026-05-05 14:09 51.77752 2.10417 23959 ft 395 kts 264°
2026-05-05 14:10 51.77496 2.05993 23949 ft 395 kts 264°
2026-05-05 14:10 51.77241 2.01632 23944 ft 395 kts 263°
2026-05-05 14:10 51.76977 1.97197 23948 ft 394 kts 263°
2026-05-05 14:10 51.76716 1.92853 23948 ft 394 kts 264°
2026-05-05 14:11 51.76448 1.88421 23950 ft 393 kts 264°
2026-05-05 14:11 51.76185 1.84095 23950 ft 393 kts 263°
2026-05-05 14:11 51.75915 1.79702 23947 ft 393 kts 264°
2026-05-05 14:11 51.75646 1.75334 23946 ft 393 kts 263°
2026-05-05 14:12 51.75373 1.70953 23893 ft 394 kts 264°
2026-05-05 14:12 51.75099 1.66604 23630 ft 392 kts 264°
2026-05-05 14:12 51.74826 1.62259 23367 ft 390 kts 263°
2026-05-05 14:12 51.74553 1.57930 23104 ft 389 kts 264°
2026-05-05 14:13 51.74278 1.53600 22855 ft 388 kts 264°
2026-05-05 14:13 51.74004 1.49308 22590 ft 386 kts 264°
2026-05-05 14:13 51.73727 1.45023 22294 ft 385 kts 264°
2026-05-05 14:13 51.73447 1.40706 21928 ft 383 kts 264°
2026-05-05 14:14 51.73173 1.36498 21463 ft 381 kts 264°
2026-05-05 14:14 51.72893 1.32226 20935 ft 380 kts 263°
2026-05-05 14:14 51.72609 1.27926 20370 ft 379 kts 263°
2026-05-05 14:14 51.72324 1.23638 19788 ft 380 kts 263°
2026-05-05 14:15 51.72041 1.19393 19217 ft 380 kts 263°
2026-05-05 14:15 51.71749 1.15036 18711 ft 377 kts 263°
2026-05-05 14:15 51.71471 1.10899 18319 ft 372 kts 263°
2026-05-05 14:15 51.71194 1.06791 17928 ft 367 kts 263°
2026-05-05 14:16 51.70918 1.02752 17360 ft 359 kts 263°
2026-05-05 14:16 51.70647 0.98814 16587 ft 356 kts 263°
2026-05-05 14:16 51.70374 0.94855 15952 ft 354 kts 264°
2026-05-05 14:16 51.70103 0.90936 15388 ft 352 kts 264°
2026-05-05 14:17 51.69832 0.87043 14782 ft 350 kts 264°
2026-05-05 14:17 51.69561 0.83164 14180 ft 347 kts 264°
2026-05-05 14:17 51.69293 0.79346 13663 ft 344 kts 264°
2026-05-05 14:17 51.69026 0.75560 13164 ft 343 kts 264°
2026-05-05 14:18 51.68755 0.71736 12700 ft 340 kts 264°
2026-05-05 14:18 51.68488 0.67974 12256 ft 338 kts 264°
2026-05-05 14:18 51.68221 0.64222 11876 ft 335 kts 264°
2026-05-05 14:18 51.67954 0.60481 11488 ft 332 kts 264°
2026-05-05 14:19 51.67690 0.56822 11100 ft 330 kts 264°
2026-05-05 14:19 51.67422 0.53152 10704 ft 328 kts 264°
2026-05-05 14:19 51.67158 0.49525 10196 ft 325 kts 264°
2026-05-05 14:19 51.66898 0.45971 9712 ft 322 kts 264°
2026-05-05 14:20 51.66635 0.42378 9280 ft 320 kts 264°
2026-05-05 14:20 51.66374 0.38844 8929 ft 319 kts 265°
2026-05-05 14:20 51.66111 0.35296 8688 ft 318 kts 265°
2026-05-05 14:20 51.65847 0.31726 8458 ft 316 kts 264°
2026-05-05 14:21 51.65578 0.28124 8028 ft 314 kts 264°
2026-05-05 14:21 51.65312 0.24578 7628 ft 313 kts 264°
2026-05-05 14:21 51.65049 0.21091 7278 ft 311 kts 264°
2026-05-05 14:21 51.64788 0.17643 7072 ft 312 kts 264°
2026-05-05 14:22 51.64527 0.14103 6982 ft 312 kts 265°
2026-05-05 14:22 51.64329 0.10670 6994 ft 311 kts 266°
2026-05-05 14:22 51.64143 0.07140 6968 ft 311 kts 266°
2026-05-05 14:22 51.63960 0.03679 6970 ft 310 kts 266°
2026-05-05 14:23 51.63776 0.00257 6969 ft 311 kts 266°
2026-05-05 14:23 51.63585 -0.03226 6970 ft 311 kts 266°
2026-05-05 14:23 51.63391 -0.06694 6969 ft 311 kts 266°
2026-05-05 14:23 51.63195 -0.10169 6972 ft 312 kts 266°
2026-05-05 14:24 51.63000 -0.13622 6963 ft 309 kts 266°
2026-05-05 14:24 51.62806 -0.17004 6955 ft 294 kts 266°
2026-05-05 14:24 51.62622 -0.20201 6954 ft 280 kts 266°
2026-05-05 14:24 51.62447 -0.23233 6947 ft 266 kts 266°
2026-05-05 14:25 51.62278 -0.26136 6935 ft 253 kts 266°
2026-05-05 14:25 51.62118 -0.28887 6930 ft 248 kts 266°
2026-05-05 14:25 51.61958 -0.31646 6930 ft 247 kts 266°
2026-05-05 14:25 51.61799 -0.34384 6932 ft 247 kts 266°
2026-05-05 14:26 51.61637 -0.37144 6930 ft 247 kts 266°
2026-05-05 14:26 51.61475 -0.39898 6930 ft 248 kts 266°
2026-05-05 14:26 51.61310 -0.42676 6935 ft 247 kts 266°
2026-05-05 14:26 51.61147 -0.45408 6931 ft 247 kts 266°
2026-05-05 14:27 51.60981 -0.48183 6930 ft 248 kts 266°
2026-05-05 14:27 51.60815 -0.50957 6930 ft 248 kts 266°
2026-05-05 14:27 51.60650 -0.53686 6930 ft 248 kts 266°
2026-05-05 14:27 51.60480 -0.56466 6931 ft 248 kts 266°
2026-05-05 14:28 51.60313 -0.59214 6933 ft 248 kts 266°
2026-05-05 14:28 51.60144 -0.61988 6932 ft 248 kts 266°
2026-05-05 14:28 51.59975 -0.64743 6932 ft 248 kts 266°
2026-05-05 14:28 51.59803 -0.67534 6939 ft 249 kts 266°
2026-05-05 14:29 51.59629 -0.70373 6779 ft 248 kts 265°
2026-05-05 14:29 51.59455 -0.73176 6575 ft 246 kts 265°
2026-05-05 14:29 51.59293 -0.75648 6286 ft 242 kts 262°
2026-05-05 14:29 51.58673 -0.78174 5902 ft 241 kts 231°
2026-05-05 14:30 51.57323 -0.79803 5508 ft 238 kts 197°
2026-05-05 14:30 51.55817 -0.80122 5116 ft 234 kts 175°
2026-05-05 14:30 51.54210 -0.79893 4647 ft 234 kts 172°
2026-05-05 14:30 51.52580 -0.79611 4143 ft 236 kts 173°
2026-05-05 14:31 51.50953 -0.79376 3645 ft 237 kts 169°
2026-05-05 14:31 51.49490 -0.78384 3149 ft 229 kts 130°
2026-05-05 14:31 51.48613 -0.76342 2981 ft 212 kts 111°
2026-05-05 14:31 51.48069 -0.74235 2911 ft 199 kts 103°
2026-05-05 14:32 51.47772 -0.72175 2964 ft 186 kts 94°
2026-05-05 14:32 51.47673 -0.70132 2734 ft 183 kts 87°
2026-05-05 14:32 51.47687 -0.68097 2474 ft 181 kts 85°
2026-05-05 14:32 51.47714 -0.66095 2222 ft 181 kts 85°
2026-05-05 14:33 51.47728 -0.64086 1975 ft 180 kts 86°
2026-05-05 14:33 51.47730 -0.62130 1726 ft 171 kts 86°
2026-05-05 14:33 51.47729 -0.60269 1497 ft 161 kts 86°
2026-05-05 14:33 51.47730 -0.58518 1299 ft 156 kts 86°
2026-05-05 14:34 51.47732 -0.56829 1124 ft 145 kts 86°
2026-05-05 14:34 51.47734 -0.55278 904 ft 134 kts 87°
2026-05-05 14:34 51.47735 -0.53808 741 ft 131 kts 86°
2026-05-05 14:34 51.47733 -0.52343 560 ft 131 kts 86°
2026-05-05 14:35 51.47740 -0.50886 387 ft 131 kts 86°
2026-05-05 14:35 51.47747 -0.49418 233 ft 130 kts 87°
2026-05-05 14:35 51.47752 -0.47965 105 ft 127 kts 88°
2026-05-05 14:35 51.47757 -0.46744 92 ft 87 kts 89°
2026-05-05 14:36 51.47758 -0.46049 92 ft 38 kts 89°
2026-05-05 14:36 51.47760 -0.45643 92 ft 25 kts 89°
2026-05-05 14:36 51.47691 -0.45469 92 ft 20 kts 177°
2026-05-05 14:36 51.47616 -0.45469 92 ft 4 kts 187°
2026-05-05 14:37 51.47597 -0.45515 92 ft 6 kts 265°
2026-05-05 14:37 51.47595 -0.45598 92 ft 8 kts 270°
2026-05-05 14:37 51.47595 -0.45700 92 ft 10 kts 269°
2026-05-05 14:37 51.47595 -0.45823 92 ft 11 kts 269°
2026-05-05 14:38 51.47595 -0.45962 92 ft 13 kts 269°
2026-05-05 14:38 51.47594 -0.46131 92 ft 17 kts 270°
2026-05-05 14:38 51.47593 -0.46326 92 ft 17 kts 269°
2026-05-05 14:38 51.47592 -0.46527 92 ft 18 kts 270°
2026-05-05 14:39 51.47591 -0.46730 92 ft 18 kts 269°
2026-05-05 14:39 51.47581 -0.46940 92 ft 18 kts 270°
2026-05-05 14:39 51.47583 -0.47149 92 ft 19 kts 271°
2026-05-05 14:39 51.47580 -0.47365 92 ft 19 kts 269°
2026-05-05 14:40 51.47580 -0.47582 92 ft 19 kts 269°
2026-05-05 14:40 51.47579 -0.47801 92 ft 19 kts 269°
2026-05-05 14:40 51.47579 -0.48024 92 ft 20 kts 269°
2026-05-05 14:40 51.47577 -0.48249 92 ft 20 kts 268°
2026-05-05 14:41 51.47577 -0.48426 92 ft 11 kts 268°
2026-05-05 14:41 51.47515 -0.48477 92 ft 12 kts 179°
2026-05-05 14:41 51.47424 -0.48475 92 ft 13 kts 179°
2026-05-05 14:41 51.47324 -0.48475 92 ft 14 kts 179°
2026-05-05 14:42 51.47218 -0.48473 92 ft 15 kts 179°
2026-05-05 14:42 51.47113 -0.48473 92 ft 6 kts 179°
2026-05-05 14:42 51.47091 -0.48479 92 ft 2 kts 220°
2026-05-05 14:42 51.47087 -0.48525 92 ft 5 kts 267°
2026-05-05 14:43 51.47087 -0.48566 92 ft 1 kts 268°
2026-05-05 14:43 51.47087 -0.48584 92 ft 0 kts 269°
2026-05-05 14:43 51.47087 -0.48583 92 ft 0 kts 269°